H2SAT (HEINRICH HERTZ)

Last updated on Tue Sep 16 2025 00:02:51 GMT+0000 (Coordinated Universal Time)

1 57213U 23093A 25258.02616802 .00000008 00000+0 00000+0 0 9998 2 57213 0.0186 108.7286 0001036 142.4152 175.6159 1.00277655 8157
UTC large
Height (km)
Speed (km/s)
/
Latitude / Longitude
Inclination (degrees)
Orbital Period (minutes)
Azimuth
Elevation
Range (km)
Doppler Factor

Next 0 passes for location: London (51.5072 / 0.1276)

Sorry there are no passes over London.